QPF
0.00 0.00 0.00 0.00 0.00 0.00 0.00 0.00 0.00 0.00 0.00 0.00 0.00 0.00 0.00 0.01 0.00 0.00 0.00 0.00 0.00 0.01 0.01 0.01 0.01 0.02 0.02 0.02 0.02 0.01 0.01 0.02 0.02 0.02 0.01 0.02 0.02 0.02 0.01 0.00 0.01 0.01 0.01 0.01
0.00 0.00 0.00 0.00 0.00 0.00 0.00 0.00 0.00 0.00 0.00 0.00 0.00 0.00 0.00 0.00 0.00 0.00 0.00 0.00 0.00 0.00 0.00 0.01 0.01 0.01 0.02 0.03 0.02 0.02 0.02 0.01 0.01 0.01 0.01 0.02 0.02 0.02 0.02 0.01 0.01 0.01 0.01 0.01
0.00 0.00 0.00 0.00 0.00 0.00 0.00 0.00 0.00 0.00 0.00 0.00 0.00 0.00 0.00 0.01 0.00 0.00 0.00 0.00 0.00 0.00 0.00 0.00 0.01 0.01 0.03 0.03 0.03 0.03 0.02 0.02 0.02 0.02 0.02 0.02 0.02 0.02 0.03 0.03 0.02 0.02 0.01 0.02
0.00 0.01 0.01 0.00 0.00 0.00 0.00 0.00 0.00 0.00 0.00 0.00 0.00 0.00 0.00 0.00 0.00 0.00 0.00 0.00 0.00 0.00 0.00 0.00 0.00 0.01 0.02 0.02 0.03 0.03 0.04 0.03 0.03 0.03 0.03 0.03 0.02 0.02 0.02 0.02 0.03 0.02 0.02 0.03
0.01 0.01 0.01 0.00 0.00 0.00 0.00 0.00 0.00 0.00 0.00 0.00 0.00 0.00 0.00 0.00 0.00 0.00 0.00 0.00 0.00 0.00 0.01 0.01 0.01 0.02 0.02 0.02 0.02 0.03 0.02 0.02 0.02 0.02 0.02 0.03 0.03 0.03 0.02 0.02 0.02 0.02 0.02 0.03
0.01 0.01 0.01 0.00 0.00 0.00 0.00 0.00 0.00 0.00 0.00 0.00 0.00 0.01 0.01 0.01 0.00 0.00 0.00 0.01 0.01 0.01 0.02 0.01 0.02 0.02 0.02 0.02 0.03 0.03 0.03 0.02 0.02 0.03 0.03 0.03 0.04 0.04 0.03 0.03 0.03 0.03 0.03 0.04
0.01 0.01 0.01 0.00 0.00 0.00 0.00 0.01 0.00 0.00 0.01 0.00 0.01 0.01 0.02 0.01 0.01 0.00 0.01 0.01 0.01 0.02 0.03 0.03 0.02 0.02 0.02 0.02 0.03 0.03 0.02 0.03 0.02 0.02 0.03 0.03 0.03 0.03 0.04 0.05 0.05 0.04 0.05 0.06
0.02 0.02 0.02 0.01 0.00 0.00 0.00 0.00 0.00 0.00 0.01 0.01 0.01 0.01 0.01 0.00 0.00 0.00 0.01 0.03 0.02 0.03 0.04 0.04 0.04 0.03 0.03 0.03 0.03 0.03 0.04 0.02 0.02 0.02 0.02 0.03 0.04 0.04 0.05 0.06 0.05 0.05 0.06 0.07
0.02 0.02 0.01 0.00 0.00 0.00 0.00 0.00 0.00 0.00 0.01 0.01 0.01 0.01 0.00 0.00 0.00 0.00 0.00 0.01 0.02 0.04 0.05 0.04 0.04 0.03 0.03 0.03 0.03 0.03 0.03 0.02 0.01 0.01 0.02 0.03 0.04 0.05 0.05 0.05 0.05 0.05 0.05 0.05
0.02 0.01 0.01 0.01 0.01 0.00 0.00 0.00 0.01 0.01 0.01 0.01 0.01 0.01 0.01 0.01 0.01 0.01 0.01 0.01 0.02 0.04 0.04 0.04 0.03 0.03 0.03 0.03 0.03 0.03 0.03 0.04 0.03 0.02 0.01 0.01 0.02 0.03 0.04 0.04 0.04 0.05 0.05 0.05
0.03 0.02 0.01 0.01 0.01 0.01 0.01 0.01 0.01 0.01 0.01 0.01 0.01 0.01 0.01 0.01 0.02 0.02 0.02 0.02 0.03 0.03 0.04 0.04 0.03 0.02 0.02 0.02 0.02 0.03 0.05 0.04 0.03 0.02 0.02 0.02 0.01 0.02 0.02 0.02 0.03 0.03 0.03 0.04
0.04 0.03 0.03 0.02 0.01 0.01 0.01 0.01 0.01 0.02 0.01 0.01 0.01 0.02 0.02 0.02 0.02 0.03 0.03 0.03 0.04 0.04 0.04 0.04 0.04 0.03 0.02 0.02 0.02 0.02 0.03 0.02 0.01 0.01 0.02 0.03 0.03 0.03 0.03 0.02 0.03 0.03 0.03 0.02
0.03 0.02 0.02 0.01 0.01 0.01 0.01 0.01 0.01 0.01 0.01 0.02 0.02 0.04 0.05 0.04 0.04 0.04 0.03 0.03 0.03 0.03 0.03 0.05 0.05 0.03 0.03 0.03 0.04 0.04 0.03 0.02 0.01 0.01 0.02 0.03 0.03 0.03 0.03 0.03 0.03 0.03 0.03 0.02
0.03 0.03 0.02 0.01 0.01 0.00 0.01 0.01 0.01 0.01 0.01 0.01 0.02 0.04 0.07 0.08 0.06 0.05 0.03 0.03 0.02 0.02 0.02 0.03 0.06 0.05 0.03 0.03 0.04 0.04 0.03 0.02 0.02 0.02 0.02 0.02 0.02 0.03 0.03 0.04 0.04 0.03 0.03 0.03
0.01 0.01 0.01 0.01 0.00 0.00 0.01 0.01 0.01 0.01 0.01 0.02 0.03 0.04 0.08 0.12 0.09 0.05 0.04 0.04 0.03 0.02 0.01 0.01 0.03 0.06 0.04 0.03 0.04 0.03 0.02 0.02 0.02 0.02 0.02 0.02 0.03 0.03 0.04 0.04 0.04 0.03 0.03 0.02
0.02 0.01 0.01 0.01 0.01 0.01 0.01 0.01 0.01 0.01 0.01 0.01 0.02 0.03 0.06 0.11 0.10 0.05 0.03 0.04 0.05 0.04 0.02 0.02 0.02 0.04 0.04 0.03 0.03 0.02 0.02 0.01 0.01 0.01 0.01 0.01 0.02 0.02 0.02 0.02 0.02 0.02 0.02 0.01
0.04 0.04 0.05 0.04 0.02 0.01 0.01 0.01 0.01 0.01 0.01 0.02 0.02 0.02 0.03 0.05 0.06 0.04 0.03 0.04 0.03 0.03 0.03 0.02 0.02 0.02 0.02 0.03 0.03 0.02 0.01 0.01 0.01 0.01 0.02 0.02 0.02 0.01 0.01 0.01 0.01 0.01 0.01 0.01
0.04 0.05 0.08 0.07 0.04 0.03 0.02 0.02 0.02 0.02 0.02 0.02 0.02 0.02 0.03 0.03 0.04 0.03 0.02 0.02 0.02 0.02 0.02 0.02 0.02 0.02 0.02 0.02 0.03 0.03 0.02 0.02 0.01 0.01 0.02 0.02 0.02 0.02 0.02 0.02 0.01 0.01 0.02 0.02
0.05 0.05 0.04 0.03 0.03 0.03 0.02 0.03 0.03 0.02 0.02 0.02 0.02 0.02 0.03 0.03 0.03 0.04 0.04 0.04 0.03 0.02 0.03 0.04 0.03 0.02 0.02 0.02 0.02 0.03 0.02 0.02 0.02 0.02 0.02 0.03 0.02 0.02 0.02 0.02 0.02 0.02 0.02 0.02
0.03 0.03 0.03 0.03 0.02 0.02 0.02 0.02 0.02 0.03 0.03 0.02 0.02 0.02 0.02 0.02 0.02 0.03 0.04 0.04 0.02 0.03 0.04 0.04 0.03 0.02 0.02 0.03 0.03 0.02 0.02 0.02 0.02 0.02 0.02 0.03 0.03 0.03 0.02 0.01 0.01 0.02 0.02 0.02
0.04 0.03 0.03 0.03 0.03 0.04 0.04 0.04 0.05 0.04 0.04 0.03 0.02 0.02 0.02 0.02 0.02 0.02 0.03 0.03 0.04 0.03 0.03 0.03 0.03 0.02 0.02 0.03 0.03 0.02 0.03 0.03 0.03 0.03 0.03 0.02 0.03 0.03 0.03 0.03 0.02 0.02 0.02 0.02
0.06 0.04 0.04 0.05 0.05 0.07 0.07 0.07 0.07 0.04 0.03 0.02 0.02 0.02 0.02 0.02 0.02 0.03 0.03 0.04 0.04 0.03 0.02 0.02 0.02 0.02 0.03 0.03 0.02 0.02 0.03 0.03 0.03 0.03 0.03 0.03 0.03 0.04 0.04 0.04 0.04 0.03 0.02 0.02
0.04 0.04 0.06 0.07 0.06 0.05 0.05 0.04 0.03 0.03 0.03 0.02 0.02 0.02 0.03 0.03 0.03 0.03 0.03 0.02 0.02 0.02 0.02 0.02 0.02 0.01 0.02 0.02 0.02 0.02 0.02 0.02 0.02 0.02 0.02 0.03 0.03 0.03 0.03 0.02 0.03 0.03 0.02 0.02
0.04 0.04 0.06 0.06 0.04 0.04 0.04 0.03 0.03 0.04 0.04 0.03 0.03 0.03 0.04 0.04 0.03 0.02 0.01 0.02 0.02 0.02 0.02 0.02 0.02 0.01 0.01 0.02 0.02 0.02 0.02 0.02 0.02 0.01 0.01 0.02 0.02 0.02 0.02 0.01 0.02 0.02 0.02 0.01
0.04 0.04 0.03 0.04 0.05 0.06 0.06 0.05 0.04 0.04 0.04 0.04 0.04 0.04 0.03 0.02 0.02 0.02 0.02 0.02 0.02 0.02 0.02 0.02 0.02 0.01 0.01 0.02 0.02 0.03 0.03 0.03 0.02 0.02 0.01 0.01 0.01 0.01 0.01 0.02 0.02 0.02 0.02 0.02
0.05 0.04 0.04 0.04 0.05 0.05 0.05 0.06 0.05 0.04 0.04 0.04 0.04 0.03 0.02 0.02 0.02 0.02 0.03 0.03 0.03 0.03 0.02 0.02 0.02 0.02 0.02 0.02 0.02 0.02 0.03 0.03 0.03 0.02 0.02 0.02 0.02 0.02 0.02 0.02 0.01 0.01 0.01 0.01
0.05 0.04 0.04 0.04 0.03 0.03 0.03 0.03 0.04 0.04 0.04 0.03 0.03 0.03 0.03 0.04 0.03 0.03 0.03 0.03 0.03 0.03 0.02 0.02 0.02 0.02 0.02 0.02 0.02 0.02 0.02 0.02 0.02 0.02 0.02 0.02 0.01 0.01 0.01 0.01 0.01 0.01 0.02 0.02
MSLP
1006.00 1005.99 1005.93 1005.83 1005.68 1005.49 1005.26 1004.99 1004.69 1004.38 1004.07 1003.78 1003.55 1003.39 1003.32 1003.35 1003.47 1003.66 1003.92 1004.22 1004.55 1004.90 1005.26 1005.63 1006.02 1006.45 1006.90 1007.38 1007.88 1008.37 1008.85 1009.29 1009.67 1009.98 1010.23 1010.42 1010.57 1010.69 1010.81 1010.92 1011.04 1011.17 1011.29 1011.39
1006.63 1006.53 1006.32 1006.01 1005.63 1005.19 1004.72 1004.25 1003.79 1003.38 1003.03 1002.76 1002.59 1002.52 1002.55 1002.67 1002.87 1003.13 1003.44 1003.79 1004.16 1004.55 1004.96 1005.39 1005.85 1006.34 1006.84 1007.36 1007.87 1008.37 1008.84 1009.25 1009.60 1009.90 1010.14 1010.34 1010.52 1010.68 1010.84 1011.01 1011.17 1011.32 1011.46 1011.56
1007.03 1006.84 1006.50 1006.04 1005.47 1004.83 1004.17 1003.53 1002.94 1002.44 1002.05 1001.77 1001.63 1001.61 1001.70 1001.87 1002.12 1002.43 1002.78 1003.16 1003.57 1004.01 1004.47 1004.96 1005.48 1006.02 1006.57 1007.12 1007.65 1008.16 1008.61 1009.02 1009.37 1009.67 1009.93 1010.16 1010.38 1010.60 1010.81 1011.03 1011.24 1011.42 1011.58 1011.68
1007.07 1006.79 1006.34 1005.76 1005.06 1004.29 1003.51 1002.76 1002.09 1001.54 1001.12 1000.84 1000.72 1000.72 1000.84 1001.06 1001.34 1001.67 1002.05 1002.45 1002.89 1003.36 1003.85 1004.38 1004.94 1005.52 1006.10 1006.67 1007.22 1007.73 1008.18 1008.59 1008.95 1009.27 1009.56 1009.84 1010.12 1010.40 1010.67 1010.94 1011.20 1011.42 1011.59 1011.71
1006.70 1006.31 1005.78 1005.11 1004.34 1003.51 1002.68 1001.90 1001.21 1000.65 1000.24 999.99 999.89 999.93 1000.08 1000.32 1000.62 1000.97 1001.36 1001.78 1002.22 1002.70 1003.22 1003.76 1004.33 1004.92 1005.51 1006.09 1006.63 1007.14 1007.60 1008.02 1008.40 1008.75 1009.09 1009.42 1009.75 1010.09 1010.42 1010.74 1011.03 1011.28 1011.47 1011.60
1005.97 1005.47 1004.86 1004.14 1003.35 1002.52 1001.71 1000.97 1000.32 999.81 999.45 999.25 999.20 999.28 999.47 999.73 1000.06 1000.42 1000.82 1001.24 1001.68 1002.16 1002.66 1003.20 1003.75 1004.33 1004.90 1005.46 1005.99 1006.49 1006.96 1007.39 1007.79 1008.18 1008.56 1008.94 1009.32 1009.70 1010.08 1010.43 1010.74 1011.00 1011.21 1011.36
1005.04 1004.43 1003.75 1003.01 1002.23 1001.45 1000.71 1000.04 999.49 999.07 998.80 998.68 998.70 998.83 999.06 999.37 999.71 1000.09 1000.49 1000.91 1001.35 1001.80 1002.28 1002.78 1003.30 1003.83 1004.37 1004.90 1005.41 1005.90 1006.36 1006.81 1007.23 1007.65 1008.06 1008.48 1008.89 1009.30 1009.68 1010.04 1010.36 1010.62 1010.83 1010.99
1004.09 1003.38 1002.65 1001.90 1001.16 1000.46 999.81 999.26 998.83 998.52 998.35 998.32 998.42 998.62 998.91 999.25 999.62 1000.02 1000.42 1000.83 1001.25 1001.67 1002.11 1002.57 1003.03 1003.51 1004.00 1004.49 1004.97 1005.44 1005.90 1006.34 1006.78 1007.22 1007.65 1008.08 1008.50 1008.90 1009.28 1009.62 1009.92 1010.18 1010.38 1010.55
1003.31 1002.52 1001.76 1001.03 1000.34 999.73 999.19 998.75 998.43 998.24 998.17 998.23 998.40 998.66 998.99 999.37 999.77 1000.18 1000.59 1000.99 1001.38 1001.78 1002.17 1002.57 1002.98 1003.40 1003.83 1004.27 1004.71 1005.16 1005.60 1006.04 1006.48 1006.92 1007.35 1007.77 1008.17 1008.54 1008.88 1009.19 1009.46 1009.69 1009.89 1010.07
1002.80 1001.98 1001.22 1000.52 999.90 999.37 998.93 998.59 998.37 998.26 998.28 998.40 998.62 998.93 999.29 999.69 1000.11 1000.53 1000.94 1001.33 1001.71 1002.07 1002.42 1002.77 1003.12 1003.48 1003.85 1004.23 1004.63 1005.04 1005.46 1005.89 1006.31 1006.73 1007.13 1007.52 1007.88 1008.21 1008.50 1008.76 1008.99 1009.20 1009.39 1009.59
1002.58 1001.78 1001.05 1000.42 999.87 999.41 999.05 998.79 998.64 998.59 998.65 998.80 999.05 999.36 999.74 1000.15 1000.57 1000.99 1001.40 1001.78 1002.14 1002.47 1002.78 1003.08 1003.37 1003.67 1003.99 1004.32 1004.67 1005.04 1005.42 1005.81 1006.20 1006.59 1006.95 1007.29 1007.60 1007.87 1008.11 1008.32 1008.52 1008.71 1008.91 1009.13
1002.55 1001.83 1001.18 1000.62 1000.16 999.77 999.48 999.27 999.15 999.13 999.19 999.35 999.59 999.89 1000.26 1000.66 1001.07 1001.49 1001.88 1002.25 1002.59 1002.89 1003.16 1003.41 1003.65 1003.89 1004.15 1004.42 1004.72 1005.04 1005.38 1005.73 1006.07 1006.41 1006.72 1007.01 1007.26 1007.48 1007.68 1007.86 1008.04 1008.23 1008.45 1008.70
1002.56 1001.95 1001.42 1000.97 1000.59 1000.28 1000.04 999.87 999.77 999.74 999.79 999.93 1000.14 1000.42 1000.75 1001.13 1001.52 1001.92 1002.30 1002.65 1002.96 1003.23 1003.46 1003.66 1003.85 1004.04 1004.23 1004.45 1004.69 1004.95 1005.24 1005.54 1005.83 1006.12 1006.39 1006.63 1006.84 1007.02 1007.19 1007.36 1007.55 1007.76 1008.01 1008.32
1002.43 1001.97 1001.57 1001.24 1000.96 1000.73 1000.55 1000.41 1000.32 1000.29 1000.32 1000.42 1000.60 1000.84 1001.14 1001.48 1001.85 1002.22 1002.57 1002.90 1003.18 1003.41 1003.60 1003.76 1003.89 1004.02 1004.15 1004.31 1004.49 1004.70 1004.93 1005.18 1005.43 1005.68 1005.91 1006.12 1006.31 1006.48 1006.65 1006.83 1007.04 1007.29 1007.60 1007.96
1002.04 1001.74 1001.49 1001.29 1001.12 1000.97 1000.85 1000.75 1000.68 1000.65 1000.67 1000.75 1000.89 1001.10 1001.37 1001.67 1002.01 1002.35 1002.67 1002.95 1003.20 1003.39 1003.53 1003.63 1003.71 1003.78 1003.86 1003.96 1004.08 1004.24 1004.43 1004.64 1004.86 1005.08 1005.29 1005.49 1005.68 1005.87 1006.07 1006.28 1006.54 1006.84 1007.20 1007.62
1001.37 1001.22 1001.11 1001.03 1000.97 1000.92 1000.87 1000.82 1000.78 1000.76 1000.78 1000.85 1000.98 1001.16 1001.40 1001.67 1001.97 1002.27 1002.55 1002.80 1002.99 1003.13 1003.22 1003.27 1003.29 1003.31 1003.33 1003.38 1003.47 1003.59 1003.75 1003.94 1004.14 1004.36 1004.58 1004.80 1005.01 1005.23 1005.47 1005.73 1006.04 1006.39 1006.80 1007.25
1000.47 1000.44 1000.46 1000.50 1000.54 1000.58 1000.60 1000.61 1000.61 1000.62 1000.66 1000.73 1000.85 1001.02 1001.24 1001.49 1001.75 1002.01 1002.24 1002.43 1002.57 1002.66 1002.69 1002.68 1002.65 1002.62 1002.61 1002.62 1002.68 1002.79 1002.94 1003.13 1003.34 1003.58 1003.83 1004.08 1004.34 1004.60 1004.88 1005.19 1005.54 1005.93 1006.36 1006.83
999.49 999.56 999.67 999.80 999.93 1000.04 1000.13 1000.19 1000.24 1000.29 1000.35 1000.44 1000.56 1000.72 1000.92 1001.14 1001.36 1001.57 1001.75 1001.89 1001.97 1002.00 1001.97 1001.92 1001.85 1001.78 1001.74 1001.74 1001.79 1001.90 1002.07 1002.28 1002.53 1002.81 1003.09 1003.39 1003.69 1003.99 1004.31 1004.65 1005.02 1005.41 1005.84 1006.29
998.63 998.75 998.92 999.10 999.28 999.44 999.57 999.68 999.77 999.84 999.93 1000.03 1000.15 1000.31 1000.48 1000.67 1000.85 1001.01 1001.14 1001.21 1001.24 1001.21 1001.14 1001.04 1000.94 1000.85 1000.81 1000.81 1000.88 1001.02 1001.22 1001.47 1001.76 1002.08 1002.41 1002.74 1003.08 1003.41 1003.74 1004.08 1004.43 1004.80 1005.19 1005.58
998.03 998.17 998.35 998.55 998.75 998.93 999.07 999.20 999.30 999.39 999.48 999.58 999.71 999.84 999.99 1000.14 1000.28 1000.39 1000.45 1000.47 1000.44 1000.36 1000.25 1000.13 1000.01 999.93 999.89 999.92 1000.02 1000.19 1000.43 1000.73 1001.06 1001.42 1001.78 1002.14 1002.49 1002.82 1003.14 1003.44 1003.75 1004.06 1004.36 1004.67
997.78 997.90 998.07 998.25 998.42 998.58 998.71 998.82 998.91 998.99 999.07 999.16 999.26 999.38 999.49 999.60 999.69 999.75 999.76 999.73 999.65 999.54 999.40 999.27 999.15 999.07 999.06 999.11 999.25 999.46 999.74 1000.07 1000.44 1000.82 1001.19 1001.55 1001.88 1002.19 1002.46 1002.71 1002.94 1003.16 1003.37 1003.57
997.87 997.95 998.07 998.19 998.31 998.41 998.50 998.56 998.61 998.66 998.72 998.78 998.86 998.94 999.02 999.09 999.13 999.15 999.12 999.04 998.93 998.79 998.65 998.51 998.40 998.34 998.35 998.43 998.60 998.84 999.15 999.49 999.87 1000.25 1000.61 1000.94 1001.23 1001.48 1001.69 1001.86 1002.00 1002.12 1002.23 1002.33
998.22 998.24 998.28 998.32 998.36 998.39 998.40 998.40 998.40 998.41 998.43 998.46 998.50 998.55 998.60 998.63 998.64 998.62 998.56 998.46 998.33 998.18 998.02 997.89 997.79 997.75 997.78 997.88 998.07 998.32 998.63 998.97 999.33 999.68 1000.00 1000.28 1000.51 1000.69 1000.82 1000.91 1000.96 1000.99 1001.01 1001.03
998.67 998.61 998.57 998.53 998.47 998.41 998.35 998.28 998.23 998.19 998.17 998.17 998.18 998.21 998.23 998.24 998.23 998.19 998.11 997.99 997.85 997.70 997.55 997.42 997.33 997.30 997.34 997.45 997.63 997.87 998.16 998.47 998.79 999.09 999.35 999.57 999.73 999.84 999.89 999.90 999.88 999.84 999.79 999.75
999.07 998.93 998.80 998.67 998.53 998.39 998.25 998.13 998.03 997.96 997.91 997.90 997.90 997.91 997.92 997.92 997.90 997.85 997.76 997.64 997.50 997.35 997.20 997.08 997.00 996.97 997.00 997.10 997.26 997.47 997.71 997.97 998.23 998.47 998.67 998.82 998.91 998.95 998.95 998.90 998.83 998.75 998.67 998.60
999.29 999.08 998.87 998.66 998.45 998.25 998.07 997.91 997.79 997.70 997.65 997.63 997.63 997.65 997.66 997.66 997.64 997.58 997.50 997.38 997.24 997.09 996.95 996.82 996.74 996.70 996.72 996.79 996.91 997.08 997.27 997.46 997.66 997.83 997.96 998.05 998.09 998.08 998.04 997.96 997.87 997.78 997.70 997.64
999.26 998.99 998.72 998.46 998.21 997.97 997.77 997.61 997.49 997.41 997.37 997.37 997.39 997.41 997.43 997.44 997.42 997.36 997.28 997.16 997.02 996.87 996.72 996.60 996.50 996.45 996.44 996.48 996.56 996.67 996.80 996.94 997.07 997.18 997.26 997.30 997.30 997.27 997.21 997.13 997.05 996.97 996.91 996.87
Thickness
5792 5808 5813 5810 5811 5816 5814 5815 5808 5815 5822 5832 5837 5838 5839 5838 5838 5835 5831 5829 5826 5823 5820 5818 5816 5813 5811 5808 5806 5803 5797 5792 5789 5787 5784 5782 5779 5777 5774 5772 5770 5767 5765 5762
5776 5794 5801 5802 5811 5813 5813 5816 5817 5819 5820 5840 5842 5839 5831 5831 5829 5825 5824 5823 5821 5819 5816 5813 5811 5808 5806 5802 5801 5798 5794 5790 5788 5784 5781 5778 5776 5773 5771 5769 5767 5764 5761 5758
5756 5778 5783 5778 5801 5807 5809 5817 5816 5808 5818 5833 5828 5823 5821 5821 5822 5820 5819 5819 5816 5814 5812 5810 5808 5805 5800 5798 5796 5793 5790 5787 5784 5781 5777 5774 5773 5770 5767 5765 5762 5760 5757 5754
5748 5753 5740 5781 5817 5817 5811 5815 5822 5821 5824 5825 5823 5823 5824 5823 5818 5814 5814 5813 5812 5810 5808 5807 5805 5802 5799 5796 5792 5788 5786 5783 5780 5777 5773 5770 5768 5766 5763 5761 5758 5755 5753 5750
5736 5736 5749 5780 5801 5805 5797 5797 5815 5814 5816 5819 5821 5816 5811 5817 5816 5811 5810 5809 5808 5807 5805 5802 5800 5797 5793 5789 5786 5782 5780 5778 5776 5773 5769 5766 5763 5761 5759 5757 5754 5751 5749 5746
5729 5725 5729 5766 5795 5808 5796 5778 5803 5807 5805 5807 5805 5789 5792 5807 5808 5807 5805 5803 5802 5801 5800 5795 5794 5792 5787 5783 5779 5776 5776 5774 5772 5770 5766 5763 5760 5757 5755 5753 5750 5747 5744 5742
5720 5721 5739 5772 5789 5791 5760 5765 5792 5796 5798 5797 5792 5791 5796 5801 5799 5799 5797 5796 5795 5793 5789 5788 5788 5784 5779 5776 5774 5774 5773 5770 5767 5765 5763 5759 5756 5754 5751 5748 5745 5741 5738 5736
5714 5711 5725 5766 5770 5760 5760 5777 5783 5787 5788 5788 5788 5790 5791 5791 5789 5789 5787 5786 5786 5782 5780 5781 5780 5777 5773 5770 5771 5770 5768 5764 5762 5760 5759 5756 5751 5749 5746 5742 5738 5735 5732 5730
5718 5722 5742 5757 5756 5761 5767 5767 5771 5775 5778 5779 5778 5780 5781 5780 5779 5779 5778 5777 5777 5774 5771 5771 5772 5770 5765 5765 5766 5763 5760 5758 5756 5755 5753 5751 5747 5743 5740 5737 5734 5731 5727 5724
5714 5724 5736 5744 5750 5755 5758 5759 5764 5767 5768 5769 5768 5770 5771 5770 5769 5769 5770 5769 5768 5766 5762 5761 5763 5763 5761 5760 5759 5756 5752 5750 5749 5747 5745 5744 5740 5738 5735 5732 5729 5726 5723 5719
5705 5716 5723 5731 5735 5741 5746 5751 5754 5757 5759 5759 5758 5758 5759 5758 5758 5759 5760 5760 5759 5757 5754 5753 5754 5754 5754 5753 5751 5747 5744 5742 5741 5740 5739 5735 5732 5730 5729 5726 5724 5721 5719 5716
5692 5705 5707 5713 5725 5733 5733 5736 5741 5743 5744 5749 5749 5748 5749 5749 5750 5751 5751 5751 5749 5748 5746 5746 5745 5745 5745 5745 5744 5740 5736 5735 5734 5733 5731 5729 5725 5721 5718 5717 5714 5712 5710 5708
5694 5701 5705 5711 5718 5723 5723 5728 5732 5735 5736 5738 5740 5741 5740 5738 5740 5741 5742 5742 5741 5740 5739 5739 5737 5736 5737 5737 5735 5733 5730 5729 5728 5726 5724 5722 5719 5715 5710 5706 5704 5702 5700 5698
5687 5690 5691 5700 5706 5714 5718 5722 5724 5727 5729 5730 5730 5731 5731 5730 5732 5731 5732 5734 5734 5733 5732 5731 5729 5729 5730 5729 5727 5725 5723 5722 5720 5718 5717 5715 5713 5710 5708 5703 5698 5695 5691 5687
5678 5682 5685 5692 5698 5703 5708 5711 5711 5713 5717 5718 5720 5720 5720 5720 5719 5721 5725 5726 5724 5723 5722 5722 5721 5721 5722 5721 5718 5716 5715 5714 5713 5712 5710 5708 5706 5703 5701 5699 5695 5691 5686 5680
5670 5676 5678 5682 5685 5692 5697 5699 5700 5702 5705 5706 5708 5709 5710 5711 5712 5714 5716 5716 5713 5712 5713 5712 5711 5712 5712 5712 5709 5707 5705 5704 5703 5702 5701 5699 5698 5696 5693 5691 5688 5685 5681 5677
5658 5662 5667 5672 5677 5682 5687 5689 5691 5693 5695 5695 5697 5699 5701 5700 5701 5702 5704 5705 5704 5703 5704 5703 5702 5703 5703 5702 5701 5699 5698 5696 5692 5692 5691 5690 5689 5688 5685 5682 5680 5678 5676 5673
5657 5659 5661 5665 5668 5673 5677 5680 5683 5684 5684 5686 5688 5689 5689 5689 5689 5691 5693 5694 5693 5692 5693 5693 5693 5693 5693 5692 5691 5691 5689 5687 5685 5683 5682 5681 5680 5679 5677 5675 5673 5670 5668 5664
5652 5652 5656 5660 5664 5666 5669 5671 5673 5675 5676 5678 5678 5678 5679 5680 5681 5681 5681 5680 5679 5678 5681 5683 5682 5683 5683 5683 5681 5680 5679 5677 5676 5675 5673 5670 5669 5669 5668 5666 5665 5663 5661 5658
5647 5650 5652 5654 5656 5658 5659 5662 5664 5665 5667 5668 5668 5668 5669 5670 5671 5671 5670 5669 5671 5672 5673 5672 5672 5673 5673 5673 5669 5671 5670 5669 5667 5666 5665 5664 5662 5660 5659 5657 5656 5655 5652 5650
5642 5644 5646 5647 5649 5651 5652 5654 5655 5656 5657 5658 5659 5659 5659 5661 5661 5661 5660 5660 5662 5663 5663 5661 5662 5663 5663 5662 5659 5662 5662 5660 5658 5657 5655 5654 5653 5651 5650 5648 5646 5645 5642 5641
5636 5637 5638 5639 5641 5643 5645 5646 5647 5648 5649 5650 5651 5652 5651 5651 5652 5653 5654 5653 5653 5652 5653 5654 5653 5652 5652 5650 5652 5652 5652 5651 5649 5648 5646 5645 5644 5642 5640 5638 5636 5635 5633 5632
5630 5630 5631 5632 5633 5636 5638 5639 5640 5640 5641 5642 5642 5642 5642 5643 5645 5644 5644 5646 5647 5643 5644 5643 5641 5641 5640 5640 5642 5643 5643 5642 5640 5639 5638 5637 5635 5633 5631 5630 5628 5626 5625 5624
5622 5624 5625 5626 5628 5628 5628 5631 5632 5633 5634 5634 5636 5636 5636 5636 5637 5639 5639 5637 5636 5634 5635 5633 5632 5631 5631 5634 5635 5635 5635 5634 5633 5631 5630 5629 5628 5626 5624 5622 5621 5619 5617 5616
5616 5617 5619 5620 5620 5621 5622 5624 5624 5624 5626 5627 5629 5630 5631 5631 5631 5631 5631 5630 5627 5626 5628 5626 5625 5624 5625 5627 5628 5628 5627 5627 5626 5625 5623 5622 5620 5619 5617 5615 5613 5611 5610 5608
5610 5611 5613 5614 5615 5616 5618 5618 5618 5618 5619 5619 5621 5623 5624 5625 5624 5624 5623 5622 5622 5620 5621 5621 5620 5618 5619 5620 5621 5620 5620 5620 5619 5618 5617 5615 5613 5611 5609 5607 5605 5604 5602 5600
5606 5606 5607 5608 5610 5612 5613 5613 5612 5612 5613 5613 5613 5616 5617 5617 5617 5617 5617 5616 5616 5615 5615 5616 5615 5615 5614 5614 5614 5614 5613 5613 5612 5610 5609 5608 5606 5604 5602 5600 5598 5596 5594 5592